Regional Weather Roundup
Issued by NWS Glasgow, MT

Home | Current Version | Previous Version | Text Only | Print | Product List | Glossary On
Versions: 1 2 3 4 5 6 7 8 9 10 11 12 13 14 15 16 17 18 19 20 21 22 23 24 25 26 27 28 29 30 31 32 33 34 35 36 37 38 39 40 41 42 43 44 45 46 47 48 49 50
000
ASUS45 KGGW 232015
RWRGGW
HOURLY WEATHER ROUNDUP FOR NORTHEAST MONTANA
NATIONAL WEATHER SERVICE GLASGOW MONTANA
200 PM MDT TUE SEP 23 2014

NOTE: "FAIR" INDICATES FEW OR NO CLOUDS BELOW 12,000 FEET WITH NO
SIGNIFICANT WEATHER AND/OR OBSTRUCTIONS TO VISISBILITY.

NORTHEAST MONTANA


CITY           SKY/WX    TMP DP  RH WIND       PRES   REMARKS
GLASGOW        SUNNY     81  49  32 W15       29.85F
PLENTYWOOD       N/A     84  48  28 W2          N/A
WOLF POINT     SUNNY     82  56  40 W8        29.84F
JORDAN           N/A     83  48  29 NW13      29.89F
WINNETT          N/A     81  45  28 W15G23      N/A
SIDNEY         SUNNY     82  57  42 SE7       29.85S
GLENDIVE       SUNNY     82  52  34 W7        29.87S
MALTA            N/A     83  51  33 W12         N/A
OPHEIM           N/A     77  46  33 W8        29.61S

FORT PECK REPORTS


CITY           SKY/WX    TMP DP  RH WIND       PRES   REMARKS
FORT PECK        N/A     74  60  61 S5          N/A
THE PINES        N/A     83  47  28 W9G20       N/A

SOUTHEAST MONTANA


CITY           SKY/WX    TMP DP  RH WIND       PRES   REMARKS
BILLINGS       MOSUNNY   84  42  22 NW8       29.98F
MILES CITY     SUNNY     85  50  29 NW10      29.89S
BAKER          SUNNY     80  53  39 W12       29.90S
LIVINGSTON     SUNNY     79  48  33 W17       30.06F

CENTRAL MONTANA


CITY           SKY/WX    TMP DP  RH WIND       PRES   REMARKS
HAVRE          SUNNY     83  47  28 NW12      29.90F
LEWISTOWN      SUNNY     79  45  29 W7        30.01F
GREAT FALLS    MOSUNNY   79  46  31 SW10      29.98F
CUT BANK       PTSUNNY   75  45  34 W8        29.98F
HELENA         MOSUNNY   78  46  32 E7        30.01F
BUTTE          MOSUNNY   73  43  33 SW5       30.12F
BOZEMAN        SUNNY     75  48  38 N6        30.08F

WESTERN MONTANA


CITY           SKY/WX    TMP DP  RH WIND       PRES   REMARKS
MISSOULA       PTSUNNY   74  46  36 SE8       30.00F
KALISPELL      NOT AVBL

NORTH DAKOTA


CITY           SKY/WX    TMP DP  RH WIND       PRES   REMARKS
WILLISTON      SUNNY     81  55  40 VRB5      29.83F
DICKINSON      SUNNY     79  57  46 S8        29.86F
MINOT          SUNNY     80  56  43 S16       29.85F
BISMARCK       CLOUDY    67  57  70 SE16      29.93S

SOUTHERN SASKATCHEWAN


CITY           SKY/WX    TMP DP  RH WIND       PRES   REMARKS
REGINA         MOSUNNY   82  54  36 SW7       29.78
MOOSE JAW      MOSUNNY   81  57  44 S6        29.79S
ESTEVAN        SUNNY     81  57  44 SE7       29.83F
SWIFT CURRENT  SUNNY     81  48  32 W9        29.82F



USA.gov is the U.S. government's official web portal to all federal, state and local government web resources and services.